Regional Weather Roundup
Issued by NWS

Home | Current Version | Previous Version | Graphics & Text | Print | Product List | Glossary On
Versions: 1 2 3 4 5 6 7 8 9 10 11 12 13 14 15 16 17 18 19 20 21 22 23 24 25 26 27 28 29 30 31 32 33 34 35 36 37 38 39 40 41 42 43 44 45 46 47 48 49 50
000
ASUS43 KMKX 220800
RWRWI

WISCONSIN REGIONAL WEATHER ROUNDUP
NATIONAL WEATHER SERVICE MILWAUKEE/SULLIVAN WI
300 AM CDT WED OCT 22 2014

NOTE: "FAIR" INDICATES FEW OR NO CLOUDS BELOW 12,000 FEET WITH NO
SIGNIFICANT WEATHER AND/OR OBSTRUCTIONS TO VISIBILITY.

WIZ001-002-006>008-014>016-023>028-220900-
NORTHWEST WISCONSIN

CITY           SKY/WX    TMP DP  RH WIND       PRES   REMARKS
SUPERIOR ARPT  CLEAR     29  28  97 CALM      30.21S
ASHLAND        PTCLDY    27  26  96 CALM      30.24F
HAYWARD        CLEAR     42  34  73 S8        30.22S
SIREN          CLEAR     42  35  75 S10       30.21R
CUMBERLAND     CLEAR     37  34  87 S6        30.23R WCI  33
RICE LAKE      CLEAR     37  34  87 SE6       30.25R WCI  33
CHETEK         CLEAR     37  34  89 CALM      30.25R
LADYSMITH      CLEAR     34  32  93 E7        30.28S WCI  28
EAU CLAIRE     NOT AVBL
MENOMONIE      CLEAR     37  34  87 E6        30.24S WCI  33
NEW RICHMOND   CLEAR     40  35  81 SE7       30.21S
OSCEOLA        CLEAR     42  37  79 SE9       30.23S
$$

WIZ003>005-009-010-017-018-220900-
NORTH CENTRAL WISCONSIN

CITY           SKY/WX    TMP DP  RH WIND       PRES   REMARKS
MANITOWISH WTR CLEAR     33  32  96 SE5       30.27S WCI  29
ARBOR VITAE    CLEAR     37  33  87 SE5       30.28R WCI  33
WOODRUFF       CLEAR     37  33  87 SE5       30.28R WCI  33
RHINELANDER    CLEAR     29  27  92 SE5       30.30R WCI  24
EAGLE RIVER    CLEAR     29  28  97 CALM      30.29R
LAND O LAKES   CLEAR     24  24  97 CALM      30.30R
PHILLIPS       CLEAR     33  32  95 SE5       30.27R WCI  28
TOMAHAWK       CLEAR     28  28  96 CALM      30.30R
MEDFORD        CLEAR     33  32  96 E3        30.28R
MERRILL        PTCLDY    27  26  98 CALM      30.30S FOG
$$

WIZ029-030-035-036-043>047-220900-
CENTRAL WISCONSIN

CITY           SKY/WX    TMP DP  RH WIND       PRES   REMARKS
WAUSAU         CLEAR     31  29  92 E6        30.30R WCI  25
MOSINEE        PTCLDY    32  32 100 E3        30.31S
MARSHFIELD     PTCLDY    32  30  92 E6        30.29R WCI  26
STEVENS POINT  PTCLDY    27  26  96 CALM      30.32R
WAUPACA        CLEAR     32  31  96 CALM      30.33R
WAUTOMA        NOT AVBL
WISC RAPIDS    PTCLDY    29  28  96 CALM      30.32R
CAMP DOUGLAS   PTCLDY    25  25 100 E5        30.29F FOG     WCI  19
$$

WIZ011>013-019>022-031-037>040-048>050-220900-
NORTHEAST WISCONSIN

CITY           SKY/WX    TMP DP  RH WIND       PRES   REMARKS
ANTIGO         PTCLDY    30  29  94 CALM      30.30R
SHAWANO        CLEAR     34  31  90 N3        30.34R
OCONTO         CLEAR     31  31 100 CALM      30.33S
STURGEON BAY   CLEAR     36  30  80 CALM      30.33R
GREEN BAY      PTCLDY    32  30  92 CALM      30.33R
MANITOWOC      NOT AVBL
APPLETON       CLEAR     34  32  93 CALM      30.32R
CLINTONVILLE   PTCLDY    32  30  93 N3        30.33R
OSHKOSH        PTCLDY    33  30  88 CALM      30.31S
$$

WIZ032>034-041-042-053>061-220900-
SOUTHWEST WISCONSIN

CITY           SKY/WX    TMP DP  RH WIND       PRES   REMARKS
LA CROSSE      CLEAR     39  35  86 SE5       30.28R
SPARTA         CLEAR     28  27  99 CALM      30.29S
VIROQUA        CLEAR     36  36 100 SE7       30.27R WCI  31
BOSCOBEL       FOG       34  32  92 CALM      30.30S VSB 1/4
PRAIRIE DU CHI CLEAR     37  35  91 CALM      30.28S
PLATTEVILLE    CLEAR     35  33  93 E7        30.30R WCI  29
$$

WIZ056-057-062-063-064-067-068-220900-
SOUTH CENTRAL WISCONSIN

CITY           SKY/WX    TMP DP  RH WIND       PRES   REMARKS
REEDSBURG      CLEAR     30  29  98 CALM      30.30R
BARABOO/DELLS  CLEAR     31  30  96 CALM      30.30R
LONE ROCK      HAZE      35  29  78 E3        30.31R VSB 1/4
MINERAL POINT  CLEAR     37  34  87 E5        30.28R WCI  34
MADISON        CLEAR     29  28  96 CALM      30.30S FOG
MIDDLETON        N/A     31  31 100 CALM      30.30S
WATERTOWN      FOG       28  28 100 CALM      30.30R VSB 1/2
MONROE         PTCLDY    36  36 100 E5        30.28S WCI  32
JANESVILLE     PTCLDY    32  32 100 CALM      30.30R FOG
$$

WIZ051-052-058>065-066-070>072-220900-
SOUTHEAST WISCONSIN

CITY           SKY/WX    TMP DP  RH WIND       PRES   REMARKS
MILWAUKEE      PTCLDY    37  33  85 NW6       30.30R WCI  32
WAUKESHA       CLEAR     32  30  93 CALM      30.31R
MILWAUKEE/TIMM CLEAR     32  30  93 CALM      30.31R
RACINE         PTCLDY    35  33  92 NW3       30.30R
BURLINGTON     CLEAR     28  28 100 CALM      30.29S FOG
KENOSHA        CLEAR     35  33  92 NW5       30.29R WCI  31
FOND DU LAC    PTCLDY    30  27  88 CALM      30.32R
SHEBOYGAN      PTCLDY    29  28  96 CALM      30.31R
WEST BEND      PTCLDY    30  28  93 CALM      30.30R
JUNEAU         FOG       32  32  99 N3        30.31S VSB 3/4
$$

LSZ147-162-220900-
LAKE SUPERIOR

STATION/POSITION TIME  TEMP    WIND        PRES    WAVE
                       AIR SEA DIR/SP/G            HT/PER
                 (UTC) (F)     (DEG/KT/KT) (MB)    (FT/S)
W MID LAKE BUOY  0650   45 46  150/ 16/ 17 1025.0F   2/ 5
DEVILS ISLAND    0700   45     140/  7/  8 1024.6F
PORT WING        0700   40     150/  2/  5 1023.0
SAXON HARBOR     0700   31        CALM     1024.0F
$$

LMZ867-665-643>646-220900-
LAKE MICHIGAN

STATION/POSITION TIME  TEMP    WIND        PRES    WAVE
                       AIR SEA DIR/SP/G            HT/PER
                 (UTC) (F)     (DEG/KT/KT) (MB)    (FT/S)
CHAMBERS ISLAND  0700   37     120/  2/  4 1027.1R
N MID LAKE BUOY  0650   46 51  110/ 10/ 10 1027.0R   2/ 4
NORTHPORT PIER   0700   46     120/  5/  9 1026.8R
SISTER BAY       0612          120/  5/  7   N/A
KEWAUNEE LAKESHO 0700   35     300/  1/  2 1025.4R
SHEBOYGAN LAKESH 0700   47 49   80/ 12/ 14 1026.6R
PORT WASHINGTON  0700   38     290/  3/  5 1026.4
ATWATER BUOY     0700   49      80/  8/ 12 1026.3R
MILWAUKEE LAKESH 0700   48      60/  8/ 10   N/A
S MID LAKE BUOY  0650   49 54   90/ 16/ 19 1025.0R   4/ 6
KENOSHA   LAKESH 0700   42     320/  4/  6 1025.1R
$$

TC  - TEMPERATURE IN CELSIUS
VSB - VISIBILITY IN STATUTE MILES
WCI - WIND CHILL INDEX
HX  - HEAT INDEX




USA.gov is the U.S. government's official web portal to all federal, state and local government web resources and services.